| time (UTC) | temp C | wind direction | speed KPH | gust KPH | rain 1hr cm | rain 24hr cm | rain mn cm | humidity % | barometer mb |
| 20260509023059 | 17 | 214 | 9.7 | 19.3 | 0.00 | 0.00 | 0.00 | 54 | 1009.1 |
| 20260509021558 | 17 | 207 | 11.3 | 17.7 | 0.00 | 0.00 | 0.00 | 55 | 1009.1 |
| 20260509020057 | 17 | 198 | 12.9 | 22.5 | 0.00 | 0.00 | 0.00 | 54 | 1009.0 |
| 20260509014558 | 18 | 209 | 11.3 | 16.1 | 0.00 | 0.00 | 0.00 | 53 | 1009.0 |
| 20260509013111 | 18 | 193 | 11.3 | 17.7 | 0.00 | 0.00 | 0.00 | 52 | 1008.9 |
| 20260509011606 | 18 | 204 | 11.3 | 19.3 | 0.00 | 0.00 | 0.00 | 51 | 1009.0 |
| 20260509010110 | 18 | 202 | 11.3 | 19.3 | 0.00 | 0.00 | 0.00 | 51 | 1008.9 |
| 20260509004604 | 18 | 222 | 11.3 | 19.3 | 0.00 | 0.00 | 0.00 | 50 | 1009.0 |
| 20260509003058 | 18 | 221 | 11.3 | 17.7 | 0.00 | 0.00 | 0.00 | 49 | 1008.9 |
| 20260509001556 | 19 | 206 | 11.3 | 20.9 | 0.00 | 0.00 | 0.00 | 49 | 1008.8 |
| 20260509000057 | 19 | 218 | 9.7 | 20.9 | 0.00 | 0.00 | 0.00 | 49 | 1008.9 |
| 20260508234558 | 19 | 209 | 12.9 | 19.3 | 0.00 | 0.00 | 0.00 | 49 | 1008.9 |
| 20260508233102 | 19 | 197 | 12.9 | 22.5 | 0.00 | 0.00 | 0.00 | 48 | 1009.0 |
| 20260508231600 | 19 | 213 | 8.0 | 16.1 | 0.00 | 0.00 | 0.00 | 49 | 1008.9 |
| 20260508230055 | 20 | 213 | 11.3 | 17.7 | 0.00 | 0.00 | 0.00 | 48 | 1009.0 |
| 20260508224612 | 20 | 225 | 11.3 | 19.3 | 0.00 | 0.00 | 0.00 | 48 | 1008.9 |
| 20260508223055 | 20 | 214 | 16.1 | 32.2 | 0.00 | 0.00 | 0.00 | 47 | 1008.9 |
| 20260508221609 | 20 | 186 | 12.9 | 29.0 | 0.00 | 0.00 | 0.00 | 44 | 1008.8 |
| 20260508220055 | 20 | 207 | 16.1 | 30.6 | 0.00 | 0.00 | 0.00 | 43 | 1008.6 |
| 20260508214557 | 20 | 195 | 14.5 | 29.0 | 0.00 | 0.00 | 0.00 | 45 | 1008.6 |
| 20260508213055 | 20 | 188 | 14.5 | 30.6 | 0.00 | 0.00 | 0.00 | 44 | 1008.9 |
| 20260508211602 | 20 | 234 | 17.7 | 40.2 | 0.00 | 0.00 | 0.00 | 44 | 1008.8 |
| 20260508210110 | 21 | 219 | 16.1 | 37.0 | 0.00 | 0.00 | 0.00 | 42 | 1009.0 |
| 20260508204558 | 21 | 260 | 20.9 | 37.0 | 0.00 | 0.00 | 0.00 | 43 | 1009.1 |
| 20260508203102 | 21 | 225 | 17.7 | 38.6 | 0.00 | 0.00 | 0.00 | 43 | 1009.2 |
| 20260508201604 | 20 | 217 | 17.7 | 43.5 | 0.00 | 0.00 | 0.00 | 43 | 1009.8 |
| 20260508200110 | 21 | 237 | 17.7 | 43.5 | 0.00 | 0.00 | 0.00 | 43 | 1009.9 |
| 20260508194603 | 20 | 190 | 19.3 | 29.0 | 0.00 | 0.00 | 0.00 | 44 | 1010.3 |
| 20260508193105 | 20 | 209 | 16.1 | 38.6 | 0.00 | 0.00 | 0.00 | 44 | 1010.4 |
| 20260508191559 | 20 | 244 | 17.7 | 38.6 | 0.00 | 0.00 | 0.00 | 44 | 1010.6 |
| 20260508190057 | 20 | 202 | 19.3 | 30.6 | 0.00 | 0.00 | 0.00 | 44 | 1010.6 |
| 20260508184601 | 20 | 228 | 12.9 | 37.0 | 0.00 | 0.00 | 0.00 | 43 | 1010.6 |
| 20260508183137 | 20 | 206 | 17.7 | 38.6 | 0.00 | 0.00 | 0.00 | 43 | 1010.9 |
| 20260508181611 | 20 | 204 | 17.7 | 38.6 | 0.00 | 0.00 | 0.00 | 44 | 1011.1 |
| 20260508180107 | 20 | 221 | 24.1 | 35.4 | 0.00 | 0.00 | 0.00 | 43 | 1011.5 |
| 20260508174559 | 19 | 199 | 14.5 | 37.0 | 0.00 | 0.00 | 0.00 | 45 | 1011.6 |
| 20260508173104 | 19 | 196 | 20.9 | 40.2 | 0.00 | 0.00 | 0.00 | 44 | 1011.8 |
| 20260508171558 | 18 | 246 | 16.1 | 33.8 | 0.00 | 0.00 | 0.00 | 47 | 1012.3 |
| 20260508170100 | 18 | 261 | 19.3 | 32.2 | 0.00 | 0.00 | 0.00 | 46 | 1012.4 |
| 20260508164556 | 18 | 251 | 12.9 | 38.6 | 0.00 | 0.00 | 0.00 | 48 | 1012.8 |
| 20260508163105 | 18 | 186 | 17.7 | 35.4 | 0.00 | 0.00 | 0.00 | 49 | 1013.2 |
| 20260508161556 | 18 | 221 | 16.1 | 29.0 | 0.00 | 0.00 | 0.00 | 50 | 1013.3 |
| 20260508154601 | 17 | 225 | 19.3 | 37.0 | 0.00 | 0.00 | 0.00 | 50 | 1013.6 |
| 20260508153057 | 17 | 203 | 14.5 | 27.4 | 0.00 | 0.00 | 0.00 | 52 | 1014.0 |
| 20260508151603 | 16 | 202 | 19.3 | 37.0 | 0.00 | 0.00 | 0.00 | 50 | 1014.1 |
| 20260508150125 | 16 | 244 | 20.9 | 37.0 | 0.00 | 0.00 | 0.00 | 52 | 1014.2 |
| 20260508144604 | 16 | 244 | 11.3 | 35.4 | 0.00 | 0.00 | 0.00 | 54 | 1014.2 |
| 20260508143103 | 15 | 247 | 11.3 | 22.5 | 0.00 | 0.00 | 0.00 | 57 | 1014.5 |
| 20260508141603 | 14 | 207 | 8.0 | 19.3 | 0.00 | 0.00 | 0.00 | 60 | 1014.5 |
| 20260508140105 | 13 | 189 | 9.7 | 16.1 | 0.00 | 0.00 | 0.00 | 61 | 1014.5 |
| 20260508134559 | 12 | 147 | 8.0 | 14.5 | 0.00 | 0.00 | 0.00 | 62 | 1014.5 |
| 20260508133059 | 12 | 184 | 8.0 | 14.5 | 0.00 | 0.00 | 0.00 | 63 | 1014.6 |
| 20260508131601 | 11 | 223 | 8.0 | 16.1 | 0.00 | 0.00 | 0.00 | 64 | 1014.6 |
| 20260508130057 | 10 | 202 | 9.7 | 16.1 | 0.00 | 0.00 | 0.00 | 65 | 1014.6 |
| 20260508124603 | 10 | 189 | 11.3 | 17.7 | 0.00 | 0.00 | 0.00 | 66 | 1014.5 |
| 20260508123055 | 9 | 193 | 11.3 | 20.9 | 0.00 | 0.00 | 0.00 | 68 | 1014.5 |
| 20260508121556 | 8 | 190 | 12.9 | 22.5 | 0.00 | 0.00 | 0.00 | 70 | 1014.5 |
| 20260508120055 | 8 | 222 | 8.0 | 11.3 | 0.00 | 0.00 | 0.00 | 73 | 1014.3 |
| 20260508114603 | 7 | 218 | 6.4 | 11.3 | 0.00 | 0.00 | 0.00 | 75 | 1014.4 |
| 20260508113126 | 7 | 191 | 4.8 | 9.7 | 0.00 | 0.00 | 0.00 | 77 | 1014.0 |
| 20260508111601 | 7 | 192 | 8.0 | 12.9 | 0.00 | 0.00 | 0.00 | 77 | 1014.0 |
| 20260508110057 | 7 | 197 | 9.7 | 14.5 | 0.00 | 0.00 | 0.00 | 78 | 1013.9 |
| 20260508104607 | 7 | 182 | 9.7 | 14.5 | 0.00 | 0.00 | 0.00 | 76 | 1013.8 |
| 20260508103107 | 7 | 199 | 11.3 | 14.5 | 0.00 | 0.00 | 0.00 | 73 | 1013.7 |
| 20260508101559 | 7 | 204 | 9.7 | 14.5 | 0.00 | 0.00 | 0.00 | 75 | 1013.7 |
| 20260508100058 | 7 | 194 | 11.3 | 16.1 | 0.00 | 0.00 | 0.00 | 73 | 1013.7 |
| 20260508094609 | 7 | 189 | 11.3 | 14.5 | 0.00 | 0.00 | 0.00 | 71 | 1013.8 |
| 20260508093107 | 7 | 199 | 8.0 | 9.7 | 0.00 | 0.00 | 0.00 | 72 | 1013.9 |
| 20260508091559 | 7 | 194 | 6.4 | 9.7 | 0.00 | 0.00 | 0.00 | 71 | 1013.7 |
| 20260508090107 | 7 | 222 | 6.4 | 9.7 | 0.00 | 0.00 | 0.00 | 72 | 1013.5 |
| 20260508084558 | 7 | 229 | 6.4 | 11.3 | 0.00 | 0.00 | 0.00 | 71 | 1013.7 |
| 20260508083100 | 7 | 233 | 8.0 | 11.3 | 0.00 | 0.00 | 0.00 | 70 | 1013.7 |
| 20260508081621 | 8 | 236 | 8.0 | 12.9 | 0.00 | 0.00 | 0.00 | 69 | 1013.6 |
| 20260508080108 | 7 | 236 | 8.0 | 14.5 | 0.00 | 0.00 | 0.00 | 71 | 1013.7 |
| 20260508074607 | 8 | 235 | 9.7 | 12.9 | 0.00 | 0.00 | 0.00 | 67 | 1013.7 |
| 20260508073106 | 8 | 206 | 11.3 | 16.1 | 0.00 | 0.00 | 0.00 | 66 | 1013.4 |
| 20260508071602 | 8 | 219 | 6.4 | 9.7 | 0.00 | 0.00 | 0.00 | 65 | 1013.7 |
| 20260508070108 | 8 | 221 | 6.4 | 11.3 | 0.00 | 0.00 | 0.00 | 66 | 1013.9 |
| 20260508064609 | 8 | 219 | 8.0 | 14.5 | 0.00 | 0.00 | 0.00 | 65 | 1014.0 |
| 20260508063113 | 8 | 221 | 8.0 | 14.5 | 0.00 | 0.00 | 0.00 | 67 | 1014.2 |
| 20260508061603 | 9 | 221 | 8.0 | 12.9 | 0.00 | 0.00 | 0.00 | 65 | 1014.3 |
| 20260508054627 | 9 | 213 | 9.7 | 17.7 | 0.00 | 0.00 | 0.00 | 64 | 1014.5 |
| 20260508053056 | 10 | 209 | 9.7 | 16.1 | 0.00 | 0.00 | 0.00 | 63 | 1014.5 |
| 20260508051559 | 9 | 220 | 8.0 | 14.5 | 0.00 | 0.00 | 0.00 | 63 | 1014.5 |
| 20260508050056 | 9 | 217 | 8.0 | 12.9 | 0.00 | 0.00 | 0.00 | 63 | 1014.4 |
| 20260508044555 | 9 | 213 | 9.7 | 14.5 | 0.00 | 0.00 | 0.00 | 63 | 1014.4 |
| 20260508043058 | 9 | 232 | 9.7 | 12.9 | 0.00 | 0.00 | 0.00 | 65 | 1014.5 |
| 20260508041555 | 9 | 229 | 8.0 | 11.3 | 0.00 | 0.00 | 0.00 | 65 | 1014.6 |
| 20260508040104 | 10 | 217 | 6.4 | 12.9 | 0.00 | 0.00 | 0.00 | 64 | 1014.5 |
| 20260508034555 | 10 | 213 | 8.0 | 11.3 | 0.00 | 0.00 | 0.00 | 62 | 1014.5 |
| 20260508033058 | 10 | 197 | 6.4 | 11.3 | 0.00 | 0.00 | 0.00 | 64 | 1014.6 |
| 20260508031603 | 11 | 203 | 8.0 | 11.3 | 0.00 | 0.00 | 0.00 | 58 | 1014.5 |
| 20260508030104 | 11 | 196 | 6.4 | 11.3 | 0.00 | 0.00 | 0.00 | 61 | 1014.6 |
| 20260508024556 | 11 | 176 | 8.0 | 11.3 | 0.00 | 0.00 | 0.00 | 63 | 1014.5 |